Regional Weather Roundup
Issued by NWS Charleston, SC

Current Version | Previous Version | Graphics & Text | Print | Product List | Glossary On
Versions: 1 2 3 4 5 6 7 8 9 10 11 12 13 14 15 16 17 18 19 20 21 22 23 24 25 26 27 28 29 30 31 32 33 34 35 36 37 38 39 40 41 42 43 44 45 46 47 48 49 50
000
ASUS42 KCHS 030527
RWRCHS

REGIONAL WEATHER ROUNDUP
NATIONAL WEATHER SERVICE CHARLESTON SC
1200 AM EST SAT DEC 03 2016

NOTE: "FAIR" INDICATES FEW OR NO CLOUDS BELOW 12,000 FEET WITH NO
SIGNIFICANT WEATHER AND/OR OBSTRUCTIONS TO VISIBILITY.

NOT ALL STATIONS ARE QUALITY CONTROLLED. USE DATA WITH CAUTION...
ESPECIALLY DEWPOINT OBSERVATIONS.

SCZ027-030-031-034>040-042>050-030600-
...SOUTHEAST SOUTH CAROLINA...

CITY           SKY/WX    TMP DP  RH WIND       PRES   REMARKS
N CHARLESTON   CLOUDY    43  38  82 CALM      30.20S
WATERFRONT PRK   N/A     50  43  77 VRB3      30.20F
MOUNT PLEASANT FAIR      39  37  93 CALM      30.20S
JOHNS ISLAND   FAIR      39  37  93 CALM      30.22R
PINOPOLIS        N/A     55  45  67 W6        30.11F
MONCKS CORNER  FAIR      37  36  93 CALM      30.21R
SUMMERVILLE    FAIR      37  37 100 CALM      30.22R
BEAUFORT MCAS  PTCLDY    42  39  89 SW7       30.24R
BEAUFORT ARPT  FAIR      46  43  87 CALM      30.22S
HILTON HEAD IS CLOUDY    43  41  93 CALM      30.23F
WALTERBORO     CLOUDY    39 N/A N/A CALM      30.23R
ALLENDALE      FAIR      39  37  93 CALM      30.23R

...SOUTHERN MIDLANDS AND PEE DEE...

CITY           SKY/WX    TMP DP  RH WIND       PRES   REMARKS
GEORGETOWN     NOT AVBL
KINGSTREE      FAIR      34  32  93 CALM      30.20R
ORANGEBURG     CLOUDY    39  37  92 SW3       30.21
BARNWELL       NOT AVBL
AIKEN          FAIR      41  34  75 SW6       30.25R
MANNING        NOT AVBL
COLUMBIA       PTCLDY    43  36  76 CALM      30.21R
SUMTER         MOCLDY    47  35  61 W8        30.18S
FLORENCE       CLOUDY    42  36  79 W6        30.19
MYRTLE BEACH   CLEAR     41  36  81 CALM      30.20F
N MYRTLE BEACH CLEAR     41  40  96 CALM      30.17

$$

GAZ063-065-086>088-099>101-113>116-118-119-134>141-150-030600-
...SOUTHEAST GEORGIA...

CITY           SKY/WX    TMP DP  RH WIND       PRES   REMARKS
SAVANNAH ARPT  PTCLDY    45  40  82 CALM      30.24
HUNTER AAF     CLOUDY    43  42  97 W5        30.21S
FORT STEWART   CLOUDY    43  40  88 CALM      30.22S
STATESBORO     PTCLDY    40  40  99 CALM      30.25R
SYLVANIA       CLOUDY   N/A N/A N/A CALM      30.25S
CLAXTON        FAIR     N/A N/A N/A CALM      30.25S

...CSRA...CENTRAL AND FAR SOUTHEAST GEORGIA...

CITY           SKY/WX    TMP DP  RH WIND       PRES   REMARKS
THOMSON        PTCLDY    47  36  66 CALM      30.27F
AUGUSTA-BUSH   PTCLDY    37  33  85 CALM      30.24R
AUGUSTA-DANIEL CLOUDY    50  29  44 NW6       30.24R
SWAINSBORO     FAIR      41  36  81 CALM      30.25S
VIDALIA        PTCLDY    46  41  81 CALM      30.24F
EASTMAN        FAIR      42  32  67 CALM      30.27F
HAZLEHURST     FAIR      50  36  58 CALM      30.23F
ALMA           CLOUDY    49  39  68 N6        30.24
WAYCROSS       PTCLDY    50  42  75 CALM      30.24F
JESUP          FAIR      46  45  93 CALM      30.24S
BAXLEY         FAIR      45  43  93 N3        30.23F
BRUNSWICK      PTCLDY    48  45  87 CALM      30.23F
SAINT SIMONS   PTCLDY    51  42  71 N5        30.21

$$

SCZ027-028-034-036>038-045-046-048>050-GAZ119-141-030600-
...LAKE AND SUPPLEMENTAL COASTAL OBSERVATIONS...

STATION/POSITION TIME  TEMP    WIND        PRES    WAVE   SWELL
                       AIR SEA DIR/SP/G            HT/PER HT/PER/DIR
                 (UTC) (F)     (DEG/KT/KT) (MB)    (FT/S) (FT/S/D)
WINYAH BAY       0445   44     320/  3     1022.0F
LAKE MURRAY      0450   50     360/  2/  4 1022.7R
ACE BASIN NERRS  0445   42        CALM     1023.0S
FORT PULASKI     0500   54 63  270/  2/  2 1023.9
SAPELO ISLAND    0500   49        CALM     1023.0

$$

ANZ835-935-AMZ111-154-330-350-352-354-370-450-454-472-030600-
...C-MAN AND BUOY OBSERVATIONS...

STATION/POSITION TIME  TEMP    WIND        PRES    WAVE   SWELL
                       AIR SEA DIR/SP/G            HT/PER HT/PER/DIR
                 (UTC) (F)     (DEG/KT/KT) (MB)    (FT/S) (FT/S/D)
BUOY 41004       0450   61 74  330/ 12/ 14 1021.7F   3/ 4   2/130/ 8
BUOY 41008       0450   61 65  360/ 12/ 16 1023.0F   2/ 9   2/120/ 9
FOLLY BEACH CMAN 0500   50     280/  3/  4 1023.0R
CAPERS NEARSHORE 0408   56 63  320/  6/  8 1022.2F
FRIPP NEARSHORE  0508   58 63  320/  6/  8 1023.4R


STATION/POSITION TIME  TEMP    WIND        PRES    WAVE   SWELL
                       AIR SEA DIR/SP/G            HT/PER HT/PER/DIR
                 (UTC) (F)     (DEG/KT/KT) (MB)    (FT/S) (FT/S/D)
5E ST. MARYS GA  0500      66                N/A     3/ 4
FRYING PAN BUOY  0510   60 74  310/ 16/ 19 1021.0
BUOY 41025       0450   58 75  310/ 21/ 29 1019.6F   4/ 4   2/ 80/ 8
CAPE LOOKOUT NC  0500   55     290/ 16/ 19 1020.3F
BUOY 41002       0450   67 74  340/ 16/ 17 1019.0R   4/ 6   2/140/ 9
BUOY 41010       NOT AVBL
ST AUGUSTINE FL  0500   63 67   10/ 17/ 20 1023.2F


$$



USA.gov is the U.S. government's official web portal to all federal, state and local government web resources and services.